Location: Breitenfeld
(46.8500°N, 15.6333°E)
Time: 00:12:26
(UTC+00:00)

Transit 4B - Pass Details

Date: 07 June 2022
Orbit: 948 x 1097 km, 32.4° (Epoch: 03 July)

Event Time Altitude Azimuth Distance (km) Brightness Sun altitude
Rises 21:30:45 0° 231° (SW) 3,887 11.5 -17.7°
Reaches altitude 10° 21:34:10 10° 217° (SW) 2,919 10.7 -17.9°
Enters shadow 21:36:14 17° 203° (SSW) 2,457 10.2 -18.0°
